Location: Moscow
(55.7500°N, 37.5830°E)
Time: 05:53:38
(UTC+03:00)

Transit 4A - Pass Details

Date: 30 November 2021
Orbit: 863 x 981 km, 66.8° (Epoch: 26 January)

Event Time Altitude Azimuth Distance (km) Brightness Sun altitude
Exits shadow 03:58:20 39° 98° (E) 1,395 9.1 -37.2°
Drops below altitude 10° 04:02:24 10° 118° (ESE) 2,706 10.8 -36.7°
Sets 04:05:02 0° 122° (ESE) 3,661 11.5 -36.3°
